Overview Statistics Trail Chart Weather Telemetry Raw packets
 

This is the latest recevied weather packets stored in our database for station/object KI4KWR-1. If no packets are shown the sender has not sent any weather packets the latest 10 day(s).

<< 1 2 3 4 5 6 >>
Time Temp. Humidity Pressure Rain* Wind** Luminosity Snow
1788581704 23.89° C 87% 985.4 hPa 0 mm - - -
1788580803 23.89° C 87% 985.8 hPa 0 mm - - -
1788579907 23.89° C 86% 985.8 hPa 0 mm - - -
1788579004 23.89° C 86% 985.9 hPa 0 mm - - -
1788578104 24.44° C 87% 985.9 hPa 0 mm - - -
1788577205 24.44° C 86% 986.1 hPa 0 mm - - -
1788576304 24.44° C 86% 986.1 hPa 0 mm - - -
1788575404 24.44° C 84% 986.2 hPa 0 mm - - -
1788574504 25° C 83% 986.1 hPa 0 mm - - -
1788573603 25.56° C 80% 986 hPa 0 mm - - -
1788572703 25.56° C 80% 986 hPa 0 mm - - -
1788571804 26.11° C 78% 986 hPa 0 mm - - -
1788570904 26.11° C 77% 985.9 hPa 0 mm - - -
1788570004 26.67° C 77% 985.8 hPa 0 mm - - -
1788569104 26.67° C 76% 985.8 hPa 0 mm - - -
1788568204 26.67° C 75% 985.7 hPa 0 mm - - -
1788567304 27.22° C 73% 985.7 hPa 0 mm - - -
1788566404 27.22° C 73% 985.5 hPa 0 mm - - -
1788565504 26.67° C 74% 985.6 hPa 0 mm - - -
1788564603 27.22° C 73% 985.6 hPa 0 mm - - -
1788563704 27.22° C 72% 986 hPa 0 mm - - -
1788562803 27.22° C 72% 985.8 hPa 0 mm - - -
1788561904 27.78° C 70% 985.6 hPa 0 mm - - -
1788561003 28.33° C 68% 985.7 hPa 0 mm - - -
1788560104 28.89° C 68% 985.9 hPa 0 mm - - -

* Rain latest hour (hover to see other rain measurements)
** Current wind speed in m/s (hover to see current wind gust speed)